CW9825 Weather Reports


time (UTC)temp
F
wind
direction
speed
knots
gust
knots
rain 1hr
in
rain 24hr
in
rain mn
in
humidity
%
barometer
mb
20260905182506 79 13 7.8 19.1 0.00 0.00 0.00 72 1016.4
20260905182008 79 29 7.8 15.6 0.00 0.00 0.00 72 1016.4
20260905181505 80 13 9.6 15.6 0.00 0.00 0.00 72 1016.3
20260905181007 80 30 9.6 15.6 0.00 0.00 0.00 70 1016.3
20260905180506 82 344 5.2 14.8 0.00 0.00 0.00 70 1016.3
20260905180004 82 34 7.0 16.5 0.00 0.00 0.00 68 1016.4
20260905175504 83 5 7.0 16.5 0.00 0.00 0.00 67 1016.3
20260905175003 84 30 7.0 10.4 0.00 0.00 0.00 66 1016.4
20260905174508 84 327 4.3 9.6 0.00 0.00 0.00 67 1016.5
20260905174002 84 115 2.6 8.7 0.00 0.00 0.00 66 1016.6
20260905173501 84 27 2.6 8.7 0.00 0.00 0.00 66 1016.4
20260905173101 84 337 3.5 8.7 0.00 0.00 0.00 67 1016.6
20260905172559 84 17 1.7 7.8 0.00 0.00 0.00 68 1016.5
20260905172059 84 321 2.6 7.0 0.00 0.00 0.00 67 1016.4
20260905171633 84 271 2.6 5.2 0.00 0.00 0.00 67 1016.3
20260905171057 83 303 0.0 2.6 0.00 0.00 0.00 68 1016.2
20260905170555 83 303 0.9 2.6 0.00 0.00 0.00 69 1016.1
20260905165552 82 162 0.0 3.5 0.00 0.00 0.00 70 1016.2
20260905165051 82 159 0.9 4.3 0.00 0.00 0.00 69 1016.1
20260905164551 81 205 1.7 6.1 0.00 0.00 0.00 70 1016.1
20260905164047 81 180 1.7 6.1 0.00 0.00 0.00 72 1015.9
20260905163546 80 178 1.7 6.1 0.00 0.00 0.00 73 1016.0
20260905163052 80 161 1.7 6.1 0.00 0.00 0.00 73 1016.0
20260905162543 79 174 2.6 9.6 0.00 0.00 0.00 74 1015.9
20260905162042 79 187 4.3 9.6 0.00 0.00 0.00 74 1015.9
20260905161540 79 185 4.3 7.8 0.00 0.00 0.00 75 1015.9
20260905161039 78 216 3.5 10.4 0.00 0.00 0.00 77 1015.9
20260905160537 77 163 4.3 11.3 0.00 0.00 0.00 78 1016.0
20260905160036 76 201 4.3 10.4 0.00 0.00 0.00 79 1016.1
20260905155534 76 168 6.1 13.0 0.00 0.00 0.00 79 1015.9
20260905155032 75 174 6.1 13.0 0.00 0.00 0.00 80 1015.8
20260905154531 75 165 5.2 13.0 0.00 0.00 0.00 80 1015.9
20260905154030 75 138 6.1 12.2 0.00 0.00 0.00 81 1015.8
20260905153529 74 116 4.3 15.6 0.00 0.00 0.00 83 1016.0
20260905153028 72 146 7.8 15.6 0.00 0.00 0.00 84 1015.8
20260905152526 71 162 7.8 13.9 0.00 0.00 0.00 85 1015.9
20260905152024 71 153 6.1 10.4 0.00 0.00 0.00 85 1015.7
20260905151524 71 161 5.2 9.6 0.00 0.00 0.00 85 1015.8
20260905151022 70 135 3.5 11.3 0.00 0.00 0.00 86 1015.7
20260905150525 70 126 5.2 11.3 0.00 0.00 0.00 86 1015.6
20260905150033 70 162 2.6 12.2 0.00 0.00 0.00 86 1015.6
20260905145525 70 168 4.3 13.9 0.00 0.00 0.00 86 1015.7
20260905145021 70 76 5.2 13.9 0.00 0.00 0.00 86 1015.7
20260905144519 70 193 5.2 12.2 0.00 0.00 0.00 86 1015.8
20260905144020 70 163 7.0 13.9 0.00 0.00 0.00 87 1015.9
20260905143519 70 150 5.2 13.9 0.00 0.00 0.00 88 1015.9
20260905143018 69 145 3.5 10.4 0.00 0.00 0.00 88 1016.0
20260905142516 69 123 4.3 10.4 0.00 0.00 0.00 89 1015.9
20260905142020 68 154 3.5 9.6 0.00 0.00 0.00 90 1015.9
20260905141516 68 148 4.3 9.6 0.00 0.00 0.00 90 1015.8
20260905141015 68 173 2.6 9.6 0.00 0.00 0.00 91 1015.8
20260905140516 68 175 3.5 8.7 0.00 0.00 0.00 92 1015.7
20260905140015 67 136 2.6 8.7 0.00 0.00 0.00 93 1015.8
20260905135513 67 145 2.6 6.1 0.00 0.00 0.00 93 1015.8
20260905135014 66 137 2.6 6.1 0.00 0.00 0.00 94 1015.7
20260905134514 66 164 2.6 7.8 0.00 0.00 0.00 94 1015.6
20260905134010 66 140 3.5 7.8 0.00 0.00 0.00 94 1015.7
20260905133510 66 153 2.6 7.8 0.00 0.00 0.00 94 1015.7
20260905133009 66 100 3.5 7.0 0.00 0.00 0.00 94 1015.8
20260905132509 66 147 3.5 7.0 0.00 0.00 0.00 94 1015.8
20260905132007 66 137 1.7 7.0 0.00 0.00 0.00 94 1015.7
20260905131514 66 135 1.7 3.5 0.00 0.00 0.00 95 1015.7
20260905131006 66 86 0.9 7.0 0.00 0.00 0.00 95 1015.9
20260905130506 66 97 2.6 7.0 0.00 0.00 0.00 95 1015.7
20260905130004 65 78 0.9 5.2 0.00 0.00 0.00 95 1015.8
20260905125504 65 119 1.7 5.2 0.00 0.00 0.00 95 1016.1
20260905125001 65 69 0.9 5.2 0.00 0.00 0.00 95 1016.0
20260905124601 65 91 0.9 6.1 0.00 0.00 0.00 95 1015.7
20260905124059 65 154 2.6 7.0 0.00 0.00 0.00 95 1015.4
20260905124001 65 136 1.7 7.0 0.00 0.00 0.00 95 1015.4
20260905123559 65 149 1.7 7.0 0.00 0.00 0.00 95 1015.3
20260905123102 65 137 1.7 9.6 0.00 0.00 0.00 95 1015.2
20260905122559 65 122 4.3 9.6 0.00 0.00 0.00 95 1015.2
20260905122100 65 81 3.5 7.8 0.00 0.00 0.00 95 1015.2
20260905121559 65 93 2.6 7.8 0.00 0.00 0.00 95 1015.2
20260905121058 65 44 2.6 7.0 0.00 0.00 0.00 95 1015.2
20260905120557 65 117 1.7 8.7 0.00 0.00 0.00 95 1015.2
20260905120058 65 72 3.5 8.7 0.00 0.00 0.00 95 1015.2
20260905115557 65 95 3.5 7.8 0.00 0.00 0.00 95 1015.1
20260905115057 65 28 2.6 7.8 0.00 0.00 0.00 95 1015.0
20260905114607 65 115 3.5 10.4 0.00 0.00 0.00 95 1014.9
20260905114057 65 53 4.3 10.4 0.00 0.00 0.00 95 1015.0
20260905113556 65 80 4.3 8.7 0.00 0.00 0.00 95 1015.0
20260905113058 65 87 2.6 8.7 0.00 0.00 0.00 95 1015.1
20260905112556 65 104 4.3 8.7 0.00 0.00 0.00 95 1015.1
20260905112055 65 138 2.6 7.8 0.00 0.00 0.00 95 1015.1
20260905111625 65 114 2.6 8.7 0.00 0.00 0.00 95 1015.0
20260905111055 65 109 2.6 8.7 0.00 0.00 0.00 95 1014.9
20260905110554 65 153 2.6 8.7 0.00 0.00 0.00 95 1015.1
20260905110106 65 159 2.6 7.8 0.00 0.00 0.00 95 1015.0
20260905105555 65 153 2.6 7.8 0.00 0.00 0.00 95 1015.0
20260905105055 65 159 1.7 8.7 0.00 0.00 0.00 95 1015.1
20260905104615 65 128 2.6 9.6 0.00 0.00 0.00 95 1015.1
20260905104056 65 175 3.5 9.6 0.00 0.00 0.00 95 1014.9
20260905103554 64 132 1.7 7.8 0.00 0.00 0.00 95 1015.0
20260905103054 64 163 0.9 4.3 0.00 0.00 0.00 95 1015.0
20260905102553 64 140 1.7 3.5 0.00 0.00 0.00 95 1015.2
20260905102053 64 154 0.0 1.7 0.00 0.00 0.00 95 1015.2
20260905101554 64 184 0.0 0.0 0.00 0.00 0.00 95 1015.2
20260905101052 64 180 0.0 0.0 0.00 0.00 0.00 94 1015.0
20260905100553 64 180 0.0 2.6 0.00 0.00 0.00 94 1015.0
20260905100053 64 180 0.0 2.6 0.00 0.00 0.00 94 1014.8
20260905095552 64 180 0.9 2.6 0.00 0.00 0.00 94 1014.8
20260905095052 64 112 0.9 2.6 0.00 0.00 0.00 94 1014.4
20260905094704 64 164 0.0 1.7 0.00 0.00 0.00 94 1014.4
20260905094050 64 164 0.0 1.7 0.00 0.00 0.00 94 1014.5
20260905093550 64 164 0.0 2.6 0.00 0.00 0.00 94 1014.4
20260905093057 64 164 0.9 2.6 0.00 0.00 0.00 94 1014.3
20260905092551 65 107 0.0 3.5 0.00 0.00 0.00 94 1014.1
20260905092049 65 107 0.9 4.3 0.00 0.00 0.00 94 1014.0
20260905091555 65 94 1.7 7.0 0.00 0.00 0.00 94 1013.8
20260905091048 65 104 2.6 7.0 0.00 0.00 0.00 94 1013.9
20260905090548 65 102 0.9 7.0 0.00 0.00 0.00 94 1013.9
20260905090048 65 91 2.6 7.0 0.00 0.00 0.00 93 1013.8
20260905085548 65 111 1.7 7.0 0.00 0.00 0.00 93 1013.9
20260905085047 65 118 1.7 7.0 0.00 0.00 0.00 93 1013.8
20260905084558 65 80 1.7 6.1 0.00 0.00 0.00 93 1013.9
20260905084048 65 98 3.5 7.0 0.00 0.00 0.00 93 1014.1
20260905083545 65 84 2.6 7.0 0.00 0.00 0.00 93 1014.0
20260905083045 65 103 1.7 6.1 0.00 0.00 0.00 93 1014.1
20260905082545 65 107 1.7 7.0 0.00 0.00 0.00 93 1014.2
20260905082043 66 80 2.6 7.0 0.00 0.00 0.00 93 1014.3
20260905081543 66 90 1.7 7.0 0.00 0.00 0.00 93 1014.2
20260905081042 66 76 0.9 5.2 0.00 0.00 0.00 92 1014.3
20260905080541 66 133 0.9 5.2 0.00 0.00 0.00 92 1014.4
20260905080039 66 90 1.7 5.2 0.00 0.00 0.00 92 1014.5
20260905075538 66 136 1.7 4.3 0.00 0.00 0.00 92 1014.9
20260905075042 67 141 1.7 6.1 0.00 0.00 0.00 92 1014.9
20260905074538 67 99 0.9 7.0 0.00 0.00 0.00 92 1015.0
20260905074037 67 207 1.7 7.8 0.00 0.00 0.00 92 1014.8
20260905073536 67 94 2.6 7.8 0.00 0.00 0.00 92 1014.7
20260905073035 67 132 1.7 7.8 0.00 0.00 0.00 92 1014.6
20260905072534 67 94 2.6 7.0 0.00 0.00 0.00 92 1014.6
20260905072034 67 74 1.7 7.8 0.00 0.00 0.00 92 1014.7
20260905071537 67 70 3.5 7.8 0.00 0.00 0.00 92 1014.8
20260905071034 67 82 3.5 7.0 0.00 0.00 0.00 92 1014.8
20260905070533 67 111 2.6 6.1 0.00 0.00 0.00 91 1014.8
20260905070033 68 140 0.9 6.1 0.00 0.00 0.00 91 1015.0
20260905065534 68 54 1.7 4.3 0.00 0.00 0.00 91 1015.1
20260905065032 68 91 2.6 6.1 0.00 0.00 0.00 91 1015.1
20260905064532 68 173 2.6 6.1 0.00 0.00 0.00 91 1015.2
20260905064031 68 120 1.7 5.2 0.00 0.00 0.00 91 1015.1
20260905063530 68 93 1.7 7.0 0.00 0.00 0.00 91 1015.1
20260905063031 68 68 1.7 7.0 0.00 0.00 0.00 91 1015.0
20260905062531 68 85 3.5 7.0 0.00 0.00 0.00 90 1015.0
20260905062030 68 129 0.9 5.2 0.00 0.00 0.00 90 1015.2
20260905061544 68 88 0.9 5.2 0.00 0.00 0.00 90 1015.1
20260905061028 68 105 0.9 5.2 0.00 0.00 0.00 90 1015.1
20260905060528 68 138 1.7 4.3 0.00 0.00 0.00 90 1015.3
20260905060047 69 149 2.6 5.2 0.00 0.00 0.00 89 1015.3
20260905055527 69 111 1.7 5.2 0.00 0.00 0.00 89 1015.2
20260905055026 69 165 2.6 7.0 0.00 0.00 0.00 89 1015.2
20260905054534 69 56 2.6 8.7 0.00 0.00 0.00 89 1014.9
20260905054024 69 128 4.3 9.6 0.00 0.00 0.00 89 1014.7
20260905053524 69 116 3.5 9.6 0.00 0.00 0.00 88 1014.7
20260905053022 69 84 2.6 8.7 0.00 0.00 0.00 88 1014.7
20260905052521 70 74 3.5 7.8 0.00 0.00 0.00 88 1014.7
20260905052021 70 355 1.7 7.8 0.00 0.00 0.00 88 1014.8
20260905051530 70 69 4.3 8.7 0.00 0.00 0.00 88 1014.6
20260905051022 70 88 4.3 8.7 0.00 0.00 0.00 87 1014.6
20260905050518 70 79 1.7 7.8 0.00 0.00 0.00 87 1014.7
20260905050017 70 67 2.6 8.7 0.00 0.00 0.00 87 1014.6
20260905045521 70 105 3.5 9.6 0.00 0.00 0.00 87 1014.5
20260905045016 70 109 4.3 9.6 0.00 0.00 0.00 87 1014.6
20260905044516 70 126 4.3 8.7 0.00 0.00 0.00 87 1014.6
20260905044014 71 73 2.6 7.0 0.00 0.00 0.00 86 1014.8
20260905043518 71 79 2.6 7.8 0.00 0.00 0.00 86 1014.7
20260905043018 71 100 2.6 8.7 0.00 0.00 0.00 86 1014.9
20260905042514 71 94 3.5 8.7 0.00 0.00 0.00 86 1014.8
20260905042014 71 69 3.5 7.8 0.00 0.00 0.00 85 1014.8
20260905041514 72 82 3.5 7.8 0.00 0.00 0.00 85 1014.8
20260905041016 72 84 1.7 7.0 0.00 0.00 0.00 85 1014.8
20260905040514 72 96 2.6 7.8 0.00 0.00 0.00 85 1014.8
20260905040018 72 59 2.6 8.7 0.00 0.00 0.00 85 1014.6
20260905035513 72 105 2.6 8.7 0.00 0.00 0.00 84 1014.5
20260905035014 72 77 4.3 8.7 0.00 0.00 0.00 84 1014.5
20260905034515 73 99 4.3 8.7 0.00 0.00 0.00 84 1014.5
20260905034012 73 93 5.2 9.6 0.00 0.00 0.00 83 1014.4
20260905033512 73 99 5.2 9.6 0.00 0.00 0.00 83 1014.4
20260905033012 73 73 5.2 8.7 0.00 0.00 0.00 83 1014.5
20260905032512 74 55 4.3 7.8 0.00 0.00 0.00 82 1014.6
20260905032012 74 134 4.3 8.7 0.00 0.00 0.00 82 1014.8
20260905031516 74 86 2.6 8.7 0.00 0.00 0.00 81 1014.7
20260905031012 74 67 4.3 8.7 0.00 0.00 0.00 81 1014.7
20260905030511 74 117 2.6 5.2 0.00 0.00 0.00 81 1014.7
20260905030011 75 87 1.7 6.1 0.00 0.00 0.00 80 1014.8
20260905025510 75 124 1.7 6.1 0.00 0.00 0.00 79 1014.9
20260905025009 75 38 1.7 7.0 0.00 0.00 0.00 79 1014.7
20260905024513 75 123 2.6 7.8 0.00 0.00 0.00 79 1014.7
20260905024007 75 65 2.6 7.8 0.00 0.00 0.00 78 1014.5
20260905023507 75 69 3.5 7.8 0.00 0.00 0.00 77 1014.5
20260905023016 76 80 3.5 7.8 0.00 0.00 0.00 77 1014.5
20260905022507 76 98 3.5 7.0 0.00 0.00 0.00 76 1014.4
20260905022007 76 79 3.5 7.0 0.00 0.00 0.00 75 1014.5
20260905021507 77 106 3.5 7.0 0.00 0.00 0.00 74 1014.4
20260905021006 77 91 3.5 7.0 0.00 0.00 0.00 73 1014.3
20260905020504 77 90 3.5 7.8 0.00 0.00 0.00 72 1014.2
20260905020004 78 88 2.6 7.8 0.00 0.00 0.00 71 1014.1
20260905015505 78 83 3.5 6.1 0.00 0.00 0.00 70 1014.0
20260905015005 79 69 3.5 5.2 0.00 0.00 0.00 69 1014.0
20260905014504 79 73 1.7 6.1 0.00 0.00 0.00 68 1014.0
20260905014003 79 115 3.5 7.0 0.00 0.00 0.00 67 1013.9
20260905013504 80 78 2.6 7.8 0.00 0.00 0.00 66 1013.7
20260905013006 80 107 3.5 7.8 0.00 0.00 0.00 66 1013.6
20260905012503 80 74 2.6 7.0 0.00 0.00 0.00 64 1013.6
20260905012003 80 78 3.5 7.0 0.00 0.00 0.00 64 1013.4
20260905011503 81 103 4.3 7.0 0.00 0.00 0.00 64 1013.4
20260905011004 81 85 1.7 6.1 0.00 0.00 0.00 63 1013.4
20260905010501 81 69 2.6 4.3 0.00 0.00 0.00 63 1013.4
20260905010002 81 81 1.7 6.1 0.00 0.00 0.00 63 1013.4
20260905005502 82 103 2.6 6.1 0.00 0.00 0.00 63 1013.5
20260905005002 82 85 1.7 5.2 0.00 0.00 0.00 63 1013.4
20260905004502 82 98 1.7 7.0 0.00 0.00 0.00 63 1013.5
20260905004001 82 71 3.5 7.0 0.00 0.00 0.00 62 1013.5
20260905003501 83 98 2.6 6.1 0.00 0.00 0.00 62 1013.4
20260905003008 83 105 1.7 7.0 0.00 0.00 0.00 61 1013.4
20260905002501 83 106 2.6 7.0 0.00 0.00 0.00 60 1013.3
20260905002003 84 107 2.6 7.8 0.00 0.00 0.00 59 1013.3
20260905001501 84 93 3.5 7.8 0.00 0.00 0.00 58 1013.2
20260905001100 84 97 2.6 7.8 0.00 0.00 0.00 57 1013.3
20260905000604 84 90 3.5 7.8 0.00 0.00 0.00 58 1013.3
20260905000100 84 107 4.3 8.7 0.00 0.00 0.00 57 1013.3
20260904235600 85 72 4.3 8.7 0.00 0.00 0.00 57 1013.1
20260904235104 85 111 4.3 7.8 0.00 0.00 0.00 57 1013.1
20260904234600 85 114 4.3 7.8 0.00 0.00 0.00 56 1013.1
20260904234100 85 65 2.6 7.8 0.00 0.00 0.00 57 1013.0
20260904233600 85 69 3.5 7.8 0.00 0.00 0.00 57 1013.2
20260904233059 85 105 3.5 7.0 0.00 0.00 0.00 56 1013.0
20260904232559 85 101 2.6 7.0 0.00 0.00 0.00 55 1013.1
20260904232058 85 96 3.5 7.8 0.00 0.00 0.00 55 1013.0
20260904231559 85 78 3.5 7.8 0.00 0.00 0.00 55 1013.0
20260904231058 85 95 3.5 7.8 0.00 0.00 0.00 55 1013.1
20260904230558 86 107 2.6 7.8 0.00 0.00 0.00 55 1013.2
20260904230109 86 71 2.6 7.8 0.00 0.00 0.00 54 1013.2
20260904225558 86 51 3.5 7.8 0.00 0.00 0.00 53 1013.0
20260904225058 87 119 2.6 7.0 0.00 0.00 0.00 53 1013.0
20260904224620 87 84 2.6 6.1 0.00 0.00 0.00 53 1013.2
20260904224057 87 94 2.6 6.1 0.00 0.00 0.00 53 1013.2
20260904223558 87 77 0.9 7.0 0.00 0.00 0.00 53 1013.3
20260904223109 87 10 1.7 7.8 0.00 0.00 0.00 53 1013.2
20260904222558 87 64 3.5 9.6 0.00 0.00 0.00 53 1013.2
20260904222057 87 131 2.6 9.6 0.00 0.00 0.00 52 1013.1
20260904221624 87 171 2.6 5.2 0.00 0.00 0.00 51 1013.1
20260904221056 87 115 0.9 8.7 0.00 0.00 0.00 51 1013.2
20260904220556 87 115 4.3 7.8 0.00 0.00 0.00 52 1013.3
20260904220056 87 118 1.7 5.2 0.00 0.00 0.00 53 1013.1
20260904215559 87 113 0.9 7.0 0.00 0.00 0.00 53 1013.2
20260904215058 87 126 3.5 7.0 0.00 0.00 0.00 53 1013.2
20260904214555 86 67 2.6 6.1 0.00 0.00 0.00 53 1013.1
20260904214055 87 56 3.5 6.1 0.00 0.00 0.00 52 1013.2
20260904213555 87 46 2.6 5.2 0.00 0.00 0.00 53 1013.2
20260904213059 87 355 1.7 5.2 0.00 0.00 0.00 52 1013.2
20260904212555 87 42 3.5 7.0 0.00 0.00 0.00 51 1013.3
20260904212058 87 97 0.9 7.0 0.00 0.00 0.00 52 1013.3
20260904211555 87 95 3.5 7.0 0.00 0.00 0.00 52 1013.2
20260904211054 87 65 2.6 5.2 0.00 0.00 0.00 53 1013.4
20260904210554 87 38 2.6 9.6 0.00 0.00 0.00 54 1013.3
20260904210057 86 49 4.3 9.6 0.00 0.00 0.00 54 1013.3
20260904205554 86 48 3.5 7.0 0.00 0.00 0.00 54 1013.4
20260904205053 86 94 2.6 7.8 0.00 0.00 0.00 53 1013.4
20260904204553 87 65 3.5 8.7 0.00 0.00 0.00 53 1013.5
20260904204056 87 79 4.3 8.7 0.00 0.00 0.00 53 1013.5
20260904203554 87 67 3.5 7.8 0.00 0.00 0.00 54 1013.5
20260904203052 87 98 2.6 7.8 0.00 0.00 0.00 54 1013.6
20260904202553 87 68 2.6 7.8 0.00 0.00 0.00 54 1013.6
20260904202052 87 68 2.6 7.8 0.00 0.00 0.00 54 1013.7
20260904201603 87 79 0.9 6.1 0.00 0.00 0.00 54 1013.5
20260904201050 87 113 2.6 7.8 0.00 0.00 0.00 53 1013.7
20260904200550 86 105 2.6 7.0 0.00 0.00 0.00 54 1013.7
20260904200109 86 67 2.6 7.8 0.00 0.00 0.00 54 1013.6
20260904195549 86 15 2.6 7.8 0.00 0.00 0.00 54 1013.6
20260904195049 86 51 1.7 6.1 0.00 0.00 0.00 55 1013.6
20260904194552 86 100 3.5 7.8 0.00 0.00 0.00 54 1013.6
20260904194048 86 82 4.3 7.8 0.00 0.00 0.00 55 1013.6
20260904193548 86 81 2.6 7.0 0.00 0.00 0.00 54 1013.7
20260904193048 86 56 1.7 7.0 0.00 0.00 0.00 56 1013.8
20260904192547 86 36 2.6 7.8 0.00 0.00 0.00 55 1013.9
20260904192049 86 84 4.3 8.7 0.00 0.00 0.00 55 1013.9
20260904191548 85 103 5.2 8.7 0.00 0.00 0.00 56 1013.9
20260904191045 85 111 3.5 9.6 0.00 0.00 0.00 54 1013.9
20260904190544 85 96 4.3 9.6 0.00 0.00 0.00 58 1013.9
20260904190043 85 83 2.6 8.7 0.00 0.00 0.00 57 1013.9
20260904185543 85 80 3.5 8.7 0.00 0.00 0.00 56 1014.0
20260904185045 84 113 0.9 8.7 0.00 0.00 0.00 61 1014.0
20260904184543 84 66 4.3 10.4 0.00 0.00 0.00 59 1014.1
20260904184041 85 105 2.6 7.0 0.00 0.00 0.00 60 1014.1
20260904183541 84 59 1.7 8.7 0.00 0.00 0.00 61 1014.2
20260904183042 84 16 2.6 6.1 0.00 0.00 0.00 60 1014.2